Location: Albany
(35.0000°S, 118.0000°E)
Time: 19:05:20
(UTC-04:00)

ADEOS Rocket - Visible Passes

Search period start: 04 May 2016 00:00
Search period end: 14 May 2016 00:00
Orbit: 860 x 1306 km, 98.7° (Epoch: 04 May)

Date Brightness Start Highest point End Pass type
(mag) Time Alt. Az. Time Alt. Az. Time Alt. Az.
04 May 3.8 05:38:59 10° S 05:44:53 59° WSW 05:51:22 10° NNW visible
04 May 3.8 15:51:03 10° NE 15:56:33 43° ESE 15:57:16 41° SE visible
04 May 4.0 17:37:51 10° NW 17:42:12 21° W 17:44:11 18° WSW visible
05 May 5.5 06:36:51 10° SSW 06:41:09 20° WSW 06:45:42 10° WNW visible
05 May 5.3 15:04:37 10° E 15:07:14 16° ESE 15:07:14 16° ESE visible
05 May 2.8 16:47:16 10° N 16:53:03 59° WNW 16:54:10 50° WSW visible
06 May 4.1 05:46:41 10° S 05:52:33 51° WSW 05:58:59 10° NW visible
06 May 3.5 15:58:33 10° NNE 16:04:09 51° ESE 16:04:11 51° ESE visible
06 May 4.1 17:46:13 10° NW 17:49:55 17° W 17:51:06 16° W visible
07 May 5.6 06:44:50 10° SSW 06:48:45 18° WSW 06:52:52 10° WNW visible
07 May 5.2 15:11:40 10° ENE 15:14:13 18° E 15:14:13 18° E visible
07 May 2.9 16:55:07 10° N 17:00:43 49° W 17:01:09 48° W visible
08 May 4.4 05:54:24 10° S 06:00:13 44° WSW 06:06:33 10° NW visible
08 May 3.2 16:06:06 10° NNE 16:11:14 58° E 16:11:14 58° E visible
08 May 4.3 17:54:48 10° WNW 17:57:39 14° W 17:58:10 14° W visible
09 May 5.7 06:52:55 10° SSW 06:56:20 15° WSW 06:59:54 10° W visible
09 May 5.0 15:18:49 10° ENE 15:21:20 19° E 15:21:20 19° E visible
09 May 3.1 17:03:02 10° NNW 17:08:16 40° WNW 17:08:16 40° WNW visible
10 May 4.7 06:02:11 10° S 06:07:52 38° WSW 06:14:04 10° NW visible
10 May 3.1 16:13:42 10° NNE 16:18:24 59° NE 16:18:24 59° NE visible
10 May 4.5 18:03:56 10° WNW 18:05:20 11° W 18:05:20 11° W visible
11 May 5.8 07:01:10 10° SW 07:03:55 13° WSW 07:06:45 10° W visible
11 May 4.9 15:26:04 10° ENE 15:28:32 21° E 15:28:32 21° E visible
11 May 3.4 17:10:59 10° NNW 17:15:28 32° WNW 17:15:28 32° WNW visible
12 May 4.9 06:09:57 10° S 06:15:31 33° WSW 06:21:32 10° NW visible
12 May 3.2 16:21:20 10° NNE 16:25:38 54° NNE 16:25:38 54° NNE visible
13 May 5.9 07:09:45 10° SW 07:11:29 11° WSW 07:13:15 10° WSW visible
13 May 4.8 15:33:23 10° NE 15:35:48 22° ENE 15:35:48 22° ENE visible
13 May 3.8 17:19:01 10° NNW 17:22:44 26° WNW 17:22:44 26° WNW visible
